Find Ningxia-1 04 xing

NORAD ID: 44782 Int'l Des: 2019-076 Owner: NINGX/CASC Country: CN operational
LEOCIRCULAR

Live-Position

3D-Globus wird geladen...

Über Ningxia-1 04 xing

Beschreibung wird geladen...

Nächste Überflüge

Passes for default location (London). Set your location on the main map for personalized predictions.

Höhenverlauf

Loading altitude history...

Zweizeiliger Elementsatz

1 44782U 19076D 26106.99843284 -.00000183 00000-0 -34703-4 0 9995
2 44782 45.0068 93.2677 0013068 200.7495 159.2810 14.02061058329231
Epoch: 16. Apr. 2026 • Age: 12 hours

Aktueller Status

Höhe 898.0 km
Geschwindigkeit 7.41 km/s
Subsatellitenpunkt -45.02°S, 11.76°W
Startdatum 13. Nov. 2019
Alter 6.4 years
Typ other

Technische Details

Klassifizierung Payload
Masse 100.00 kg
Trockenmasse 100.00 kg
Gesamtmasse 100.00 kg
Länge 0.50 m
Durchmesser 0.20 m
Spannweite 1.00 m
Form Box + 2 pan
Hersteller DFHZ
Bus-Typ NX-1
Phasenstatus In Orbit
Besitzer/Staat NINGX/CASC/CN

Most Searched